Location: Beaurecueil
(43.5122°N, 5.5450°E)
Time: 06:37:07
(UTC+00:00)

Cosmos 1939 Rocket - Pass Details

Date: 24 January 2021
Orbit: 531 x 585 km, 97.4° (Epoch: 04 March)

Event Time Altitude Azimuth Distance (km) Brightness Sun altitude
Rises 17:30:53 0° 164° (SSE) 2,789 6.4 -9.6°
Reaches altitude 10° 17:33:02 10° 164° (SSE) 1,889 5.6 -10.0°
Maximum altitude 17:37:08 84° 77° (ENE) 585 2.8 -10.7°
Drops below altitude 10° 17:41:13 10° 349° (N) 1,880 5.5 -11.4°
Sets 17:43:22 0° 349° (N) 2,773 6.4 -11.8°
